CW0133 Weather Reports


Display with metric or nautical units.
time (UTC)temp
F
wind
direction
speed
MPH
gust
MPH
rain 1hr
in
rain 24hr
in
rain mn
in
humidity
%
barometer
mb
20260508214003 82 121 4.0 10.0 0.00 0.00 0.00 70 1010.4
20260508213503 82 121 5.0 8.0 0.00 0.00 0.00 70 1010.5
20260508213003 82 131 4.0 8.0 0.00 0.00 0.00 70 1010.5
20260508212503 82 137 4.0 11.0 0.00 0.00 0.00 70 1010.6
20260508212024 82 135 4.0 11.0 0.00 0.00 0.00 70 1010.6
20260508211503 81 128 5.0 10.0 0.00 0.00 0.00 70 1010.8
20260508211003 81 149 5.0 11.0 0.00 0.00 0.00 72 1010.9
20260508210524 81 158 5.0 11.0 0.00 0.00 0.00 71 1011.0
20260508210003 81 146 4.0 11.0 0.00 0.00 0.00 72 1011.1
20260508205503 81 127 5.0 11.0 0.00 0.00 0.00 72 1011.1
20260508205024 81 137 4.0 11.0 0.00 0.00 0.00 72 1011.2
20260508204503 81 133 5.0 13.0 0.00 0.00 0.00 71 1011.2
20260508204004 81 109 5.0 13.0 0.00 0.00 0.00 72 1011.3
20260508203504 81 105 5.0 12.0 0.00 0.00 0.00 70 1011.4
20260508203025 82 104 5.0 12.0 0.00 0.00 0.00 70 1011.4
20260508202504 82 114 5.0 10.0 0.00 0.00 0.00 71 1011.5
20260508202004 82 126 5.0 10.0 0.00 0.00 0.00 70 1011.4
20260508201504 82 130 5.0 10.0 0.00 0.00 0.00 70 1011.4
20260508201025 82 133 5.0 10.0 0.00 0.00 0.00 70 1011.5
20260508200504 82 136 5.0 11.0 0.00 0.00 0.00 70 1011.5
20260508200004 81 121 6.0 12.0 0.00 0.00 0.00 71 1011.6
20260508195504 81 112 5.0 12.0 0.00 0.00 0.00 71 1011.6
20260508195004 81 116 5.0 11.0 0.00 0.00 0.00 71 1011.6
20260508194504 81 130 5.0 10.0 0.00 0.00 0.00 70 1011.8
20260508194003 81 134 5.0 10.0 0.00 0.00 0.00 70 1011.9
20260508193504 81 134 4.0 8.0 0.00 0.00 0.00 70 1012.0
20260508193004 81 127 5.0 10.0 0.00 0.00 0.00 69 1012.0
20260508192525 81 118 5.0 10.0 0.00 0.00 0.00 70 1012.1
20260508192004 81 108 4.0 10.0 0.00 0.00 0.00 70 1012.1
20260508191504 81 91 4.0 10.0 0.00 0.00 0.00 70 1012.2
20260508191004 80 95 4.0 11.0 0.00 0.00 0.00 71 1012.2
20260508190504 80 109 4.0 11.0 0.00 0.00 0.00 70 1012.3
20260508190004 80 113 2.0 6.0 0.00 0.00 0.00 70 1012.4
20260508185504 79 113 4.0 8.0 0.00 0.00 0.00 69 1012.5
20260508185004 79 114 4.0 10.0 0.00 0.00 0.00 69 1012.8
20260508184504 79 114 4.0 10.0 0.00 0.00 0.00 69 1012.7
20260508184004 79 113 2.0 10.0 0.00 0.00 0.00 70 1012.8
20260508183504 79 113 2.0 5.0 0.00 0.00 0.00 69 1012.7
20260508183004 79 111 4.0 8.0 0.00 0.00 0.00 70 1012.9
20260508182525 79 101 4.0 8.0 0.00 0.00 0.00 70 1012.8
20260508182004 78 101 4.0 8.0 0.00 0.00 0.00 70 1013.0
20260508181504 79 120 5.0 10.0 0.00 0.00 0.00 71 1013.0
20260508181025 78 126 4.0 10.0 0.00 0.00 0.00 71 1013.1
20260508180503 78 126 4.0 8.0 0.00 0.00 0.00 71 1013.2
20260508180004 78 130 5.0 11.0 0.00 0.00 0.00 72 1013.4
20260508175525 78 124 5.0 11.0 0.00 0.00 0.00 71 1013.4
20260508175004 78 112 5.0 11.0 0.00 0.00 0.00 71 1013.4
20260508174524 78 107 6.0 11.0 0.00 0.00 0.00 71 1013.4
20260508174025 78 117 6.0 11.0 0.00 0.00 0.00 70 1013.5
20260508173504 78 118 6.0 11.0 0.00 0.00 0.00 70 1013.5
20260508173004 78 114 5.0 11.0 0.00 0.00 0.00 70 1013.4
20260508172503 78 129 5.0 10.0 0.00 0.00 0.00 70 1013.5
20260508172004 78 133 4.0 10.0 0.00 0.00 0.00 71 1013.7
20260508171504 78 121 2.0 8.0 0.00 0.00 0.00 71 1013.7
20260508171004 78 122 2.0 5.0 0.00 0.00 0.00 71 1013.8
20260508170503 78 108 4.0 6.0 0.00 0.00 0.00 71 1013.8
20260508170004 78 87 4.0 8.0 0.00 0.00 0.00 71 1013.7
20260508165524 77 78 4.0 8.0 0.00 0.00 0.00 73 1013.6
20260508165004 77 32 4.0 6.0 0.00 0.00 0.00 72 1013.7
20260508164525 76 1 4.0 6.0 0.00 0.00 0.00 72 1013.7
20260508164004 76 4 4.0 7.0 0.00 0.00 0.00 73 1013.9
20260508163504 75 32 2.0 7.0 0.00 0.00 0.00 75 1013.9
20260508163004 74 82 2.0 6.0 0.00 0.00 0.00 75 1013.9
20260508162525 74 83 2.0 6.0 0.00 0.00 0.00 75 1014.0
20260508162004 73 85 2.0 8.0 0.00 0.00 0.00 77 1014.1
20260508161504 73 67 2.0 8.0 0.00 0.00 0.00 76 1014.2
20260508161003 72 41 2.0 6.0 0.00 0.00 0.00 76 1014.3
20260508160504 72 38 1.0 2.0 0.00 0.00 0.00 76 1014.4
20260508160004 72 38 1.0 2.0 0.00 0.00 0.00 76 1014.7
20260508155524 72 38 1.0 4.0 0.00 0.00 0.00 76 1014.8
20260508155025 71 38 2.0 4.0 0.00 0.00 0.00 76 1014.7
20260508154504 71 38 2.0 5.0 0.00 0.00 0.00 76 1014.7
20260508154003 70 38 2.0 6.0 0.00 0.00 0.00 77 1014.8
20260508153524 70 38 2.0 6.0 0.00 0.00 0.00 77 1014.9
20260508153004 69 38 2.0 5.0 0.00 0.00 0.00 77 1015.0
20260508152503 68 38 2.0 4.0 0.00 0.00 0.00 78 1015.0
20260508152025 68 38 2.0 5.0 0.00 0.00 0.00 79 1015.1
20260508151503 68 38 1.0 5.0 0.00 0.00 0.00 79 1015.1
20260508151004 67 38 1.0 5.0 0.00 0.00 0.00 78 1015.2
20260508150503 67 38 1.0 5.0 0.00 0.00 0.00 79 1015.4
20260508150004 67 38 2.0 5.0 0.00 0.00 0.00 78 1015.4
20260508145503 66 37 2.0 6.0 0.00 0.00 0.00 79 1015.4
20260508145024 66 35 2.0 6.0 0.00 0.00 0.00 80 1015.4
20260508144504 66 34 2.0 5.0 0.00 0.00 0.00 79 1015.4
20260508144003 66 34 2.0 5.0 0.00 0.00 0.00 79 1015.3
20260508143504 66 34 1.0 4.0 0.00 0.00 0.00 79 1015.4
20260508143003 65 34 1.0 4.0 0.00 0.00 0.00 80 1015.5
20260508142504 65 34 2.0 5.0 0.00 0.00 0.00 80 1015.4
20260508142003 65 34 1.0 5.0 0.00 0.00 0.00 80 1015.3
20260508141504 65 34 1.0 5.0 0.00 0.00 0.00 81 1015.4
20260508141003 65 34 1.0 5.0 0.00 0.00 0.00 80 1015.4
20260508140503 64 34 2.0 7.0 0.00 0.00 0.00 81 1015.5
20260508140004 64 35 4.0 7.0 0.00 0.00 0.00 81 1015.4
20260508135503 64 35 2.0 8.0 0.00 0.00 0.00 81 1015.3
20260508135024 64 32 2.0 8.0 0.00 0.00 0.00 81 1015.4
20260508134503 64 30 4.0 8.0 0.00 0.00 0.00 81 1015.4
20260508134003 64 25 4.0 6.0 0.00 0.00 0.00 81 1015.5
20260508133504 64 352 4.0 6.0 0.00 0.00 0.00 81 1015.5
20260508133024 64 324 4.0 7.0 0.00 0.00 0.00 81 1015.5
20260508132524 64 319 2.0 7.0 0.00 0.00 0.00 81 1015.5
20260508132004 64 318 2.0 7.0 0.00 0.00 0.00 81 1015.6
20260508131524 63 318 1.0 7.0 0.00 0.00 0.00 82 1015.7
20260508131003 63 317 1.0 6.0 0.00 0.00 0.00 82 1015.6
20260508130503 63 317 2.0 6.0 0.00 0.00 0.00 82 1015.5
20260508130003 63 317 2.0 6.0 0.00 0.00 0.00 82 1015.3
20260508125525 63 319 2.0 7.0 0.00 0.00 0.00 81 1015.3
20260508125003 63 332 4.0 7.0 0.00 0.00 0.00 81 1015.5
20260508124504 63 338 5.0 7.0 0.00 0.00 0.00 81 1015.5
20260508124003 63 343 4.0 7.0 0.00 0.00 0.00 81 1015.5
20260508123503 63 349 4.0 7.0 0.00 0.00 0.00 81 1015.7
20260508123003 63 349 4.0 7.0 0.00 0.00 0.00 81 1015.6
20260508122503 63 348 4.0 7.0 0.00 0.00 0.00 81 1015.4
20260508122003 63 346 4.0 7.0 0.00 0.00 0.00 81 1015.4
20260508121503 63 344 4.0 7.0 0.00 0.00 0.00 81 1015.3
20260508121024 63 344 2.0 8.0 0.00 0.00 0.00 81 1015.6
20260508120503 63 342 4.0 8.0 0.00 0.00 0.00 82 1015.7
20260508120003 63 339 2.0 6.0 0.00 0.00 0.00 82 1015.5
20260508115503 63 338 2.0 5.0 0.00 0.00 0.00 82 1015.8
20260508115003 63 338 2.0 6.0 0.00 0.00 0.00 81 1016.1
20260508114503 63 338 2.0 6.0 0.00 0.00 0.00 81 1016.1
20260508114003 63 338 1.0 4.0 0.00 0.00 0.00 81 1016.0
20260508113503 63 338 1.0 4.0 0.00 0.00 0.00 81 1016.1
20260508113004 63 338 1.0 4.0 0.00 0.00 0.00 80 1016.1
20260508112503 63 338 0.0 4.0 0.00 0.00 0.00 80 1016.1
20260508112003 63 338 1.0 4.0 0.00 0.00 0.00 80 1016.2
20260508111503 63 338 2.0 4.0 0.00 0.00 0.00 80 1016.1
20260508111003 63 338 2.0 5.0 0.00 0.00 0.00 80 1016.0
20260508110524 63 337 4.0 7.0 0.00 0.00 0.00 80 1016.0
20260508110003 63 339 5.0 8.0 0.00 0.00 0.00 80 1016.0
20260508105503 63 342 4.0 8.0 0.00 0.00 0.00 80 1015.9
20260508105004 63 342 4.0 8.0 0.00 0.00 0.00 80 1015.8
20260508104504 63 337 4.0 10.0 0.00 0.00 0.00 80 1015.9
20260508104003 63 334 2.0 10.0 0.00 0.00 0.00 80 1015.9
20260508103503 63 331 2.0 7.0 0.00 0.00 0.00 80 1015.9
20260508103003 63 329 4.0 7.0 0.00 0.00 0.00 80 1016.0
20260508102503 63 329 5.0 10.0 0.00 0.00 0.00 80 1015.9
20260508102003 63 342 5.0 10.0 0.00 0.00 0.00 80 1015.8
20260508101503 63 358 4.0 8.0 0.00 0.00 0.00 81 1015.6
20260508101024 63 10 2.0 7.0 0.00 0.00 0.00 81 1015.6
20260508100503 63 11 2.0 5.0 0.00 0.00 0.00 81 1015.5
20260508100003 63 11 2.0 5.0 0.00 0.00 0.00 81 1015.7
20260508095503 63 2 2.0 8.0 0.00 0.00 0.00 81 1016.0
20260508095003 63 340 2.0 8.0 0.00 0.00 0.00 81 1015.8
20260508094503 63 321 4.0 6.0 0.00 0.00 0.00 81 1015.7
20260508094003 63 321 2.0 6.0 0.00 0.00 0.00 82 1015.8
20260508093503 63 321 1.0 5.0 0.00 0.00 0.00 82 1015.9
20260508093024 63 321 1.0 2.0 0.00 0.00 0.00 82 1016.0
20260508092503 63 321 0.0 2.0 0.00 0.00 0.00 82 1016.1
20260508092003 63 321 0.0 2.0 0.00 0.00 0.00 81 1016.1
20260508091503 63 321 0.0 2.0 0.00 0.00 0.00 81 1016.1
20260508091003 63 321 0.0 2.0 0.00 0.00 0.00 81 1016.0
20260508090503 64 321 0.0 2.0 0.00 0.00 0.00 80 1015.9
20260508090003 64 321 0.0 1.0 0.00 0.00 0.00 80 1015.8
20260508085503 64 321 0.0 1.0 0.00 0.00 0.00 80 1015.7
20260508085024 64 321 0.0 1.0 0.00 0.00 0.00 80 1015.7
20260508084503 64 321 0.0 2.0 0.00 0.00 0.00 79 1015.8
20260508084003 64 321 0.0 2.0 0.00 0.00 0.00 79 1015.8
20260508083525 64 321 1.0 4.0 0.00 0.00 0.00 79 1015.9
20260508083004 64 321 1.0 4.0 0.00 0.00 0.00 79 1015.9
20260508082504 64 321 1.0 4.0 0.00 0.00 0.00 79 1015.9
20260508082004 64 321 1.0 4.0 0.00 0.00 0.00 79 1015.9
20260508081504 64 321 0.0 2.0 0.00 0.00 0.00 79 1016.1
20260508081025 64 321 0.0 2.0 0.00 0.00 0.00 78 1015.9
20260508080504 64 0 0.0 0.0 0.00 0.00 0.00 78 1015.9
20260508080004 64 0 0.0 0.0 0.00 0.00 0.00 78 1016.1
20260508075504 64 321 0.0 1.0 0.00 0.00 0.00 78 1016.1
20260508075004 64 321 0.0 1.0 0.00 0.00 0.00 77 1016.1
20260508074504 64 321 0.0 2.0 0.00 0.00 0.00 77 1015.9
20260508074004 63 321 1.0 5.0 0.00 0.00 0.00 77 1016.1
20260508073525 64 321 2.0 5.0 0.00 0.00 0.00 77 1016.0
20260508073004 63 321 2.0 5.0 0.00 0.00 0.00 77 1016.0
20260508072525 63 321 2.0 5.0 0.00 0.00 0.00 77 1016.1
20260508072004 63 321 2.0 5.0 0.00 0.00 0.00 77 1016.1
20260508071504 63 321 2.0 5.0 0.00 0.00 0.00 77 1015.8
20260508071003 63 321 2.0 5.0 0.00 0.00 0.00 77 1015.8
20260508070525 63 321 4.0 5.0 0.00 0.00 0.00 77 1016.0
20260508070004 63 321 2.0 5.0 0.00 0.00 0.00 77 1016.0
20260508065504 63 321 2.0 5.0 0.00 0.00 0.00 77 1015.9
20260508065004 63 321 2.0 6.0 0.00 0.00 0.00 77 1016.1
20260508064504 63 321 2.0 6.0 0.00 0.00 0.00 78 1016.3
20260508064003 63 320 2.0 6.0 0.00 0.00 0.00 77 1016.5
20260508063504 63 319 2.0 6.0 0.00 0.00 0.00 78 1016.6
20260508063025 63 319 2.0 5.0 0.00 0.00 0.00 78 1016.7
20260508062504 63 319 2.0 5.0 0.00 0.00 0.00 78 1016.6
20260508062004 63 319 1.0 4.0 0.00 0.00 0.00 78 1016.9
20260508061503 63 319 1.0 4.0 0.00 0.00 0.00 78 1016.8
20260508061004 63 319 1.0 4.0 0.00 0.00 0.00 78 1016.8
20260508060504 63 319 1.0 4.0 0.00 0.00 0.00 78 1017.0
20260508060004 63 319 2.0 5.0 0.00 0.00 0.00 78 1016.9
20260508055525 63 319 2.0 6.0 0.00 0.00 0.00 78 1016.5
20260508055003 63 319 2.0 6.0 0.00 0.00 0.00 78 1016.5
20260508054504 63 319 2.0 4.0 0.00 0.00 0.00 78 1016.6
20260508054004 63 319 2.0 5.0 0.00 0.00 0.00 78 1016.8
20260508053503 63 319 2.0 5.0 0.00 0.00 0.00 78 1017.2
20260508053004 63 318 1.0 4.0 0.00 0.00 0.00 78 1016.9
20260508052503 63 318 1.0 5.0 0.00 0.00 0.00 78 1016.9
20260508052004 63 316 2.0 7.0 0.00 0.00 0.00 78 1016.6
20260508051504 63 313 2.0 7.0 0.00 0.00 0.00 77 1016.7
20260508051004 63 311 2.0 6.0 0.00 0.00 0.00 77 1016.7
20260508050504 63 311 2.0 6.0 0.00 0.00 0.00 77 1016.5
20260508050004 63 309 4.0 8.0 0.00 0.00 0.00 77 1016.5
20260508045504 63 301 4.0 8.0 0.00 0.00 0.00 77 1017.0
20260508045003 63 315 4.0 8.0 0.00 0.00 0.00 77 1017.0
20260508044503 63 24 2.0 8.0 0.00 0.00 0.00 77 1017.2
20260508044004 63 62 2.0 5.0 0.00 0.00 0.00 77 1016.8
20260508043504 63 62 2.0 5.0 0.00 0.00 0.00 76 1016.0
20260508043004 63 62 2.0 5.0 0.00 0.00 0.00 76 1016.3
20260508042504 63 62 2.0 5.0 0.00 0.00 0.00 76 1016.4
20260508042004 63 62 1.0 4.0 0.00 0.00 0.00 76 1016.6
20260508041525 64 62 1.0 5.0 0.00 0.00 0.00 75 1016.7
20260508041004 64 62 2.0 5.0 0.00 0.00 0.00 75 1016.6
20260508040504 64 62 2.0 5.0 0.00 0.00 0.00 75 1017.0
20260508040004 64 62 2.0 5.0 0.00 0.00 0.00 75 1017.1
20260508035504 64 62 1.0 4.0 0.00 0.00 0.00 76 1017.2
20260508035004 64 62 1.0 4.0 0.00 0.00 0.00 76 1017.1
20260508034524 64 62 2.0 4.0 0.00 0.00 0.00 75 1017.3
20260508034004 64 62 1.0 4.0 0.00 0.00 0.00 75 1017.2
20260508033504 64 62 0.0 2.0 0.00 0.00 0.00 75 1017.7
20260508033024 64 62 1.0 4.0 0.00 0.00 0.00 75 1017.8
20260508032503 64 62 1.0 4.0 0.00 0.00 0.00 75 1017.6
20260508032024 64 62 1.0 4.0 0.00 0.00 0.00 75 1017.8
20260508031504 64 62 2.0 4.0 0.00 0.00 0.00 74 1017.7
20260508031025 64 62 2.0 4.0 0.00 0.00 0.00 74 1017.7
20260508030524 64 62 2.0 4.0 0.00 0.00 0.00 74 1017.7
20260508030004 64 62 1.0 4.0 0.00 0.00 0.00 73 1017.4
20260508025504 64 62 2.0 8.0 0.00 0.00 0.00 73 1017.1
20260508025004 65 62 4.0 8.0 0.00 0.00 0.00 72 1016.9
20260508024503 65 63 2.0 6.0 0.00 0.00 0.00 72 1016.9
20260508024025 65 64 1.0 6.0 0.00 0.00 0.00 72 1016.8
20260508023503 65 65 2.0 6.0 0.00 0.00 0.00 72 1016.6
20260508023004 65 66 2.0 6.0 0.00 0.00 0.00 71 1016.3
20260508022503 65 69 2.0 6.0 0.00 0.00 0.00 71 1015.8
20260508022024 65 57 2.0 12.0 0.00 0.00 0.00 70 1015.7
20260508021504 65 38 2.0 12.0 0.00 0.00 0.00 70 1015.7
20260508021003 65 46 4.0 11.0 0.00 0.00 0.00 69 1015.5
20260508020525 65 55 4.0 11.0 0.00 0.00 0.00 69 1015.5
20260508020003 65 60 2.0 8.0 0.00 0.00 0.00 69 1015.3
20260508015504 65 76 4.0 11.0 0.00 0.00 0.00 68 1015.3
20260508015004 66 83 4.0 11.0 0.00 0.00 0.00 68 1015.2
20260508014503 66 73 4.0 10.0 0.00 0.00 0.00 67 1015.1
20260508014003 66 59 5.0 11.0 0.00 0.00 0.00 67 1015.2
20260508013504 66 45 5.0 11.0 0.00 0.00 0.00 66 1015.6
20260508013003 66 38 5.0 10.0 0.00 0.00 0.00 66 1015.6
20260508012503 66 39 4.0 10.0 0.00 0.00 0.00 65 1015.7
20260508012024 67 33 4.0 7.0 0.00 0.00 0.00 65 1015.6
20260508011503 67 18 5.0 10.0 0.00 0.00 0.00 65 1015.9
20260508011003 67 6 5.0 11.0 0.00 0.00 0.00 65 1016.3
20260508010503 67 28 5.0 11.0 0.00 0.00 0.00 65 1016.4
20260508010004 67 39 5.0 12.0 0.00 0.00 0.00 64 1015.1
20260508005504 68 39 5.0 12.0 0.00 0.00 0.00 64 1015.0
20260508005003 68 52 6.0 12.0 0.00 0.00 0.00 64 1015.1
20260508004524 68 49 6.0 11.0 0.00 0.00 0.00 63 1015.4
20260508004003 68 34 5.0 11.0 0.00 0.00 0.00 64 1015.6
20260508003503 69 33 4.0 10.0 0.00 0.00 0.00 64 1015.9
20260508003005 69 48 4.0 8.0 0.00 0.00 0.00 63 1016.2
20260508002503 69 40 2.0 8.0 0.00 0.00 0.00 62 1016.1
20260508002003 69 12 2.0 6.0 0.00 0.00 0.00 62 1016.1
20260508001503 70 11 2.0 6.0 0.00 0.00 0.00 63 1016.3
20260508001004 70 9 4.0 6.0 0.00 0.00 0.00 63 1016.5
20260508000503 70 5 4.0 6.0 0.00 0.00 0.00 62 1016.6
20260508000024 70 5 4.0 6.0 0.00 0.00 0.00 62 1016.5
20260507235503 70 30 4.0 7.0 0.00 0.00 0.00 61 1017.0
20260507235003 70 92 2.0 7.0 0.00 0.00 0.00 61 1016.8
20260507234503 70 73 2.0 8.0 0.00 0.00 0.00 60 1016.9
20260507234003 70 21 4.0 8.0 0.00 0.00 0.00 62 1016.8
20260507233524 70 5 5.0 8.0 0.00 0.00 0.00 60 1017.0
20260507233024 70 2 6.0 10.0 0.00 0.00 0.00 61 1017.1
20260507232503 70 29 5.0 10.0 0.00 0.00 0.00 60 1017.1
20260507232003 70 66 4.0 10.0 0.00 0.00 0.00 61 1016.8
20260507231503 70 64 4.0 10.0 0.00 0.00 0.00 60 1016.8
20260507231024 70 33 2.0 8.0 0.00 0.00 0.00 61 1016.7
20260507230524 70 13 4.0 8.0 0.00 0.00 0.00 62 1016.8
20260507230024 70 14 5.0 10.0 0.00 0.00 0.00 61 1017.1
20260507225503 70 17 5.0 11.0 0.00 0.00 0.00 61 1017.0
20260507225003 70 12 5.0 11.0 0.00 0.00 0.00 63 1017.2
20260507224504 69 8 5.0 10.0 0.00 0.00 0.00 64 1017.1
20260507224004 69 4 4.0 7.0 0.00 0.00 0.00 64 1017.4
20260507223503 69 20 4.0 10.0 0.00 0.00 0.00 64 1017.3
20260507223003 69 42 4.0 10.0 0.00 0.00 0.00 64 1017.3
20260507222503 69 16 4.0 8.0 0.00 0.00 0.00 62 1017.4
20260507222003 69 10 5.0 10.0 0.00 0.00 0.00 63 1017.6
20260507221524 69 15 4.0 11.0 0.00 0.00 0.00 63 1017.5
20260507221003 69 360 5.0 11.0 0.00 0.00 0.00 63 1017.6
20260507220524 69 349 6.0 11.0 0.00 0.00 0.00 63 1017.7
20260507220003 69 354 5.0 11.0 0.00 0.00 0.00 63 1017.5
20260507215524 68 356 5.0 8.0 0.00 0.00 0.00 64 1017.6
20260507215003 68 5 5.0 10.0 0.00 0.00 0.00 64 1017.5
20260507214503 68 16 5.0 10.0 0.00 0.00 0.00 63 1017.5